West Chatham, MA

3:49 AM EST on February 24, 2017 (GMT -0500)
Chatham Municipal

Weather History for KCQX - July, 2013

Change the Weather History Date:

Wednesday, July 24, 2013

  Actual Average Record
Temperature  
Mean Temperature 80 °F -  
Max Temperature 88 °F 74 °F 88 °F (2013)
Min Temperature 73 °F 61 °F 57 °F (1983)
Cooling Degree Days 16    
Growing Degree Days 30 (Base 50)    
Moisture  
Dew Point 71 °F    
Average Humidity 81    
Maximum Humidity 94    
Minimum Humidity 59    
Precipitation  
Precipitation 0.00 in - - ()
Sea Level Pressure  
Sea Level Pressure 29.68 in    
Wind  
Wind Speed 5 mph (SW)    
Max Wind Speed 10 mph    
Max Gust Speed 17 mph    
Visibility 7 miles    
Events Rain    
Averages and records for this station are not official NWS values.
T = Trace of Precipitation, MM = Missing Value Source: NWS Daily Summary

Daily Weather History Graph

Daily Weather History Graph

Search for Another Location

Airport or City:

Trip Planner

Search our weather history database for the weather conditions in past years. The results will help you decide how hot, cold, wet, or windy it might be!

Date:

Astronomy

Jul. 24, 2013 Rise Set
Actual Time 5:26 AM EDT 8:05 PM EDT
Civil Twilight 4:54 AM EDT 8:37 PM EDT
Nautical Twilight 4:14 AM EDT 9:17 PM EDT
Astronomical Twilight 3:28 AM EDT 10:03 PM EDT
Moon 9:06 PM EDT 7:45 AM EDT
Length of Visible Light 15h 43m
Length of Day
14h 39m
Waning Gibbous, 95% of the Moon is Illuminated
Jul 24
Waning Gibbous
Jul 29
Last Quarter
Aug 6
New
Aug 14
First Quarter
Aug 20
Full

Hourly Weather History & Observations

Time (EDT) Temp. Heat Index Dew Point Humidity Pressure Visibility Wind Dir Wind Speed Gust Speed Precip Events Conditions
12:52 AM 77.0 °F - 73.0 °F 88% 29.62 in 6.0 mi SW 5.8 mph - N/A   Overcast
1:27 AM 75.2 °F - 73.4 °F 94% 29.61 in 4.0 mi SSW 6.9 mph - N/A   Mostly Cloudy
1:37 AM 75.2 °F - 73.4 °F 94% 29.61 in 4.0 mi SSW 8.1 mph - N/A   Mostly Cloudy
1:52 AM 75.0 °F - 73.0 °F 94% 29.61 in 4.0 mi SW 4.6 mph - N/A   Overcast
2:04 AM 75.2 °F - 71.6 °F 89% 29.60 in 5.0 mi WSW 6.9 mph - N/A   Scattered Clouds
2:52 AM 75.0 °F - 72.0 °F 90% 29.60 in 6.0 mi Variable 4.6 mph - N/A   Clear
3:32 AM 75.2 °F - 73.4 °F 94% 29.61 in 5.0 mi WSW 3.5 mph - N/A   Overcast
3:45 AM 75.2 °F - 73.4 °F 94% 29.61 in 5.0 mi SW 3.5 mph - N/A   Overcast
3:52 AM 75.0 °F - 73.0 °F 94% 29.61 in 5.0 mi WSW 3.5 mph - N/A   Overcast
4:06 AM 75.2 °F - 71.6 °F 89% 29.60 in 6.0 mi Calm Calm - N/A   Overcast
4:47 AM 73.4 °F - 71.6 °F 94% 29.59 in 3.0 mi SSW 4.6 mph - N/A   Overcast
4:52 AM 73.9 °F - 72.0 °F 93% 29.60 in 3.0 mi SW 3.5 mph - N/A   Overcast
5:52 AM 73.0 °F - 71.1 °F 93% 29.62 in 3.0 mi Calm Calm - N/A   Overcast
6:02 AM 73.4 °F - 71.6 °F 94% 29.61 in 2.5 mi Calm Calm - N/A   Mostly Cloudy
6:08 AM 73.4 °F - 71.6 °F 94% 29.62 in 3.0 mi Calm Calm - N/A   Mostly Cloudy
6:16 AM 73.4 °F - 71.6 °F 94% 29.62 in 2.5 mi Calm Calm - N/A   Overcast
6:23 AM 73.4 °F - 71.6 °F 94% 29.62 in 3.0 mi Calm Calm - N/A   Overcast
6:52 AM 75.0 °F - 72.0 °F 90% 29.63 in 5.0 mi SW 3.5 mph - N/A   Overcast
7:38 AM 78.8 °F - 73.4 °F 83% 29.63 in 7.0 mi SSW 4.6 mph - N/A   Overcast
7:45 AM 77.0 °F - 73.4 °F 89% 29.63 in 7.0 mi Variable 4.6 mph - N/A   Mostly Cloudy
7:52 AM 78.1 °F - 73.0 °F 84% 29.64 in 7.0 mi Variable 4.6 mph - N/A   Mostly Cloudy
8:22 AM 80.6 °F 85.4 °F 73.4 °F 79% 29.64 in 10.0 mi Variable 5.8 mph - N/A   Mostly Cloudy
8:34 AM 80.6 °F 84.6 °F 71.6 °F 74% 29.64 in 10.0 mi SSW 4.6 mph - N/A   Scattered Clouds
8:52 AM 80.1 °F 83.8 °F 72.0 °F 76% 29.65 in 10.0 mi SW 6.9 mph - N/A   Partly Cloudy
9:44 AM 82.4 °F 88.2 °F 73.4 °F 74% 29.66 in 10.0 mi SW 9.2 mph - N/A   Mostly Cloudy
9:52 AM 82.0 °F 87.4 °F 73.0 °F 74% 29.66 in 10.0 mi SW 6.9 mph 16.1 mph N/A   Scattered Clouds
10:21 AM 82.4 °F 88.2 °F 73.4 °F 74% 29.67 in 10.0 mi SSW 6.9 mph - N/A   Partly Cloudy
10:52 AM 84.0 °F 90.2 °F 73.0 °F 69% 29.69 in 10.0 mi SSW 8.1 mph - N/A   Clear
10:59 AM 82.4 °F 88.2 °F 73.4 °F 74% 29.68 in 10.0 mi SSW 9.2 mph 17.3 mph N/A   Partly Cloudy
11:52 AM 84.9 °F 91.4 °F 73.0 °F 67% 29.70 in 10.0 mi SW 8.1 mph - N/A   Clear
12:52 PM 82.9 °F 89.4 °F 73.9 °F 74% 29.71 in 10.0 mi South 6.9 mph - N/A   Clear
1:52 PM 82.9 °F 88.8 °F 73.0 °F 72% 29.71 in 10.0 mi SSW 9.2 mph - N/A   Partly Cloudy
2:52 PM 88.0 °F 94.7 °F 72.0 °F 59% 29.73 in 10.0 mi SW 8.1 mph - N/A   Clear
3:52 PM 86.0 °F 90.7 °F 70.0 °F 59% 29.73 in 10.0 mi SW 9.2 mph - N/A   Mostly Cloudy
4:52 PM 84.9 °F 89.4 °F 70.0 °F 61% 29.74 in 10.0 mi SW 10.4 mph - N/A   Mostly Cloudy
5:52 PM 82.0 °F 85.9 °F 70.0 °F 67% 29.75 in 10.0 mi SW 6.9 mph - N/A   Clear
6:52 PM 82.0 °F 84.5 °F 66.9 °F 60% 29.78 in 10.0 mi Variable 3.5 mph - N/A   Clear
7:52 PM 80.1 °F 83.6 °F 71.1 °F 74% 29.82 in 10.0 mi WSW 5.8 mph - N/A   Overcast
8:30 PM 75.2 °F - 69.8 °F 83% 29.83 in 8.0 mi Variable 5.8 mph - 0.00 in Rain Rain
8:38 PM 75.2 °F - 69.8 °F 83% 29.84 in 9.0 mi Variable 4.6 mph - 0.00 in Rain Light Rain
8:52 PM 73.9 °F - 69.1 °F 85% 29.85 in 10.0 mi North 4.6 mph - 0.00 in   Mostly Cloudy
9:52 PM 73.9 °F - 64.0 °F 71% 29.87 in 10.0 mi NNE 6.9 mph - N/A   Partly Cloudy
10:52 PM 73.9 °F - 63.0 °F 68% 29.88 in 10.0 mi NNE 6.9 mph - N/A   Clear
11:52 PM 73.0 °F - 62.1 °F 68% 29.90 in 10.0 mi Variable 4.6 mph - N/A   Clear